Regional Weather Roundup
Issued by NWS New Orleans/Baton Rouge, LA

Home | Current Version | Previous Version | Text Only | Print | Product List | Glossary On
Versions: 1 2 3 4 5 6 7 8 9 10 11 12 13 14 15 16 17 18 19 20 21 22 23 24 25 26 27 28 29 30 31 32 33 34 35 36 37 38 39 40 41 42 43 44 45 46 47 48 49 50
000
ASUS44 KLIX 310611
RWRLIX
NEW ORLEANS REGIONAL WEATHER ROUNDUP
NATIONAL WEATHER SERVICE NEW ORLEANS LA
100 AM CDT SAT JUL 31 2021

NOTE: "FAIR" INDICATES FEW OR NO CLOUDS BELOW 12,000 FEET WITH NO
      SIGNIFICANT WEATHER AND/OR OBSTRUCTIONS TO VISIBILITY.
      SKY/WX - SKY CONDITION AND SIGNIFICANT WEATHER.
      TMP - AIR TEMPERATURE.     DP    - DEWPOINT TEMPERATURE.
      RH  - RELATIVE HUMIDITY.   PRES  - PRESSURE.
      HI  - HEAT INDEX.          WCI   - WIND CHILL INDEX.

*  THESE STATIONS ARE NOT NWS OR FAA STATIONS AND ARE NOT UNDER
   NWS QUALITY CONTROL.

LAZ038-048-061-063-065>067-069-076-077-310700-
SOUTHEAST LOUISIANA

CITY           SKY/WX    TMP DP  RH WIND       PRES   REMARKS
N.O. INTL ARPT PTCLDY    84  79  85 SW3       30.03F HX  96
6HR MIN TEMP:  83; 6HR MAX TEMP:  91;

N.O. DWNTWN HE FAIR      85  79  82 CALM      30.04F HX  98
6HR MIN TEMP:  85; 6HR MAX TEMP:  93;

N.O. LAKEFRONT PTCLDY    87  80  79 W9        30.03F HX 103
6HR MIN TEMP:  87; 6HR MAX TEMP:  92;

RESERVE*       FAIR      80  77  91 CALM      30.04F
6HR MIN TEMP:  80; 6HR MAX TEMP:  90;

SLIDELL        PTCLDY    83  78  85 CALM      30.02F
6HR MIN TEMP:  82; 6HR MAX TEMP:  90;

BATON ROUGE    PTCLDY    80  78  94 CALM      30.03F
6HR MIN TEMP:  79; 6HR MAX TEMP:  89;

BOOTHVILLE*    NOT AVBL
BELLE CHASSE*  PTCLDY    80  80 100 CALM      30.03F
6HR MIN TEMP:  80; 6HR MAX TEMP:  88;

BOGALUSA*        N/A     80  76  88 CALM      30.03F
6HR MIN TEMP:  80; 6HR MAX TEMP:  90;

GALLIANO*      PTCLDY    81  76  86 CALM      30.04F
6HR MIN TEMP:  79; 6HR MAX TEMP:  88;

NEW ROADS*     FAIR      80  80  99 CALM      30.03F
6HR MIN TEMP:  80; 6HR MAX TEMP:  91;

GONZALES*      FAIR      81  78  91 CALM      30.03F
6HR MIN TEMP:  80; 6HR MAX TEMP:  92;

HAMMOND*       PTCLDY    81  77  89 CALM      30.03F
HOUMA*         NOT AVBL

$$

MSZ070-077-080>082-310700-
SOUTHERN MISSISSIPPI

CITY           SKY/WX    TMP DP  RH WIND       PRES   REMARKS
MCCOMB         CLEAR     80  80 100 CALM      30.04F
6HR MIN TEMP:  80; 6HR MAX TEMP:  93;

PICAYUNE*        N/A     77  77 100 CALM      30.03S
GULFPORT       MOCLDY    82  78  88 CALM      30.01F
6HR MIN TEMP:  81; 6HR MAX TEMP:  89;

BILOXI         PTCLDY    83  79  87 CALM      30.00F
6HR MIN TEMP:  82; 6HR MAX TEMP:  87;

PASCAGOULA     PTCLDY    79  78  97 CALM      30.02F
6HR MIN TEMP:  79; 6HR MAX TEMP:  89;


$$

COASTAL OBSERVATIONS
LAKE AND NEARSHORE STATIONS

STATION/POSITION TIME  SKY/WX   TEMP    WIND        PRES    WAVE
                                AIR SEA DIR/SP/G            HT/PER
                 (UTC)          (F)     (DEG/KT/KT) (MB)    (FT/S)
WAVELAND YACHT   0530            88 89  260/  4/  6   N/A
GRAND ISLE       0530            87 90              1017.4
SOUTHWEST PASS   0530            85 85  290/  6/  8 1015.9
NEW CANAL        0530            86 91  230/  4/  7 1016.4
SHELL BEACH      0530            84 92  250/  7/  9 1017.3

OFFSHORE STATIONS

STATION/POSITION TIME  SKY/WX   TEMP    WIND        PRES    WAVE
                                AIR SEA DIR/SP/G            HT/PER
                 (UTC)          (F)     (DEG/KT/KT) (MB)    (FT/S)
64 S DAUPHIN ISL 0550            85 85  270/  8/ 10 1017.2    1/ 3
SW PASS ENTRANCE 0530            86 87                N/A     1/ 7
LA OFFSHORE OIL  0553            86     300/  4/  5 1018.1

$$




USA.gov is the U.S. government's official web portal to all federal, state and local government web resources and services.